Flag for Norway Weather past 2 weeks in Nøtterøy, Norway

Now
64 °F

Broken clouds.


Feels Like: 64 °F
Forecast: 54 / 68 °F
Wind: 17 mph from Southwest

Location: Torp

Current Time: Aug 29, 2015 at 3:17:16 PM

Latest Report: Aug 29, 2015 at 2:50 PM


Visibility: N/A

Pressure: 30.04 "Hg

Humidity: 68%

Dew point: 54 °F

Location of NøtterøyLocation

Historic Weather in Nøtterøy — Graph

°F

Nøtterøy temperature yesterday

Maximum temperature yesterday: 68 °F (at 5:50 PM)
Minimum temperature yesterday: 50 °F (at 6:20 AM)
Average temperature yesterday: 59 °F

Past Weeks' High & Low Weather Summary

 TemperatureHumidityPressure
High75 °F (Aug 23, 3:50 PM)100% (Aug 19, 5:20 AM)30.36 "Hg (Aug 19, 5:20 AM)
Low48 °F (Aug 21, 6:20 AM)27% (Aug 14, 3:20 PM)29.50 "Hg (Aug 27, 5:20 PM)
Average62 °F75%30.04 "Hg
* Reported Aug 14 1:20 PM — Aug 29 1:50 PM, Nøtterøy, Weather by CustomWeather, © 2015

Note: Actual official high and low records may vary slightly from our data, if they occured in-between our weather recording intervals... More about our weather records

Advertising

Nøtterøy weather history for previous 24 hours

 ConditionsComfort  
Time TempWeatherWind HumidityBarometerVisibility
1:50 PM
Sat, Aug 29
66 °FScattered clouds.13 mph56%30.04 "HgN/A
1:20 PM64 °FScattered clouds.14 mph60%30.04 "HgN/A
12:50 PM64 °FScattered clouds.12 mph56%30.04 "HgN/A
11:50 AM64 °FSunny.13 mph60%30.04 "Hg10 mi
11:20 AM63 °FPassing clouds.12 mph59%30.01 "HgN/A
10:50 AM63 °FSunny.10 mph59%30.01 "Hg10 mi
9:50 AM61 °FSunny.9 mph68%30.01 "Hg10 mi
9:20 AM59 °FSunny.6 mph72%30.01 "Hg10 mi
8:50 AM57 °FPassing clouds.6 mph77%29.98 "HgN/A
7:50 AM55 °FSunny.7 mph82%29.98 "Hg10 mi
7:20 AM54 °FSunny.7 mph88%29.95 "Hg10 mi
6:50 AM54 °FClear.9 mph88%29.95 "Hg10 mi
6:20 AM52 °FClear.8 mph88%29.95 "Hg10 mi
5:50 AM52 °FClear.7 mph88%29.92 "Hg10 mi
4:50 AM54 °FPassing clouds.9 mph88%29.92 "HgN/A
4:20 AM54 °FPassing clouds.6 mph88%29.92 "HgN/A
3:50 AM54 °FPassing clouds.7 mph88%29.89 "HgN/A
3:20 AM55 °FPassing clouds.8 mph82%29.89 "HgN/A
2:50 AM55 °FOvercast.10 mph82%29.89 "HgN/A
2:20 AM54 °FPassing clouds.8 mph88%29.89 "HgN/A
1:50 AM55 °FOvercast.7 mph82%29.89 "HgN/A
1:20 AM55 °FPassing clouds.7 mph82%29.89 "HgN/A
12:50 AM55 °FPassing clouds.7 mph82%29.86 "HgN/A
12:20 AM55 °FCool.6 mph77%29.86 "HgN/A
11:50 PM
Fri, Aug 28
55 °FCool.6 mph77%29.86 "HgN/A
10:50 PM57 °FClear.7 mph77%29.86 "Hg10 mi
10:20 PM57 °FClear.8 mph77%29.83 "Hg10 mi
9:50 PM59 °FClear.9 mph68%29.83 "Hg10 mi
9:20 PM59 °FSunny.9 mph68%29.83 "Hg10 mi
8:50 PM61 °FSunny.10 mph59%29.80 "Hg10 mi
8:20 PM61 °FPassing clouds.8 mph63%29.80 "HgN/A
7:50 PM63 °FSunny.9 mph59%29.80 "Hg10 mi
7:20 PM64 °FSunny.12 mph52%29.77 "Hg10 mi
6:50 PM66 °FPassing clouds.9 mph49%29.77 "HgN/A
6:20 PM66 °FScattered clouds.10 mph60%29.77 "HgN/A
5:50 PM68 °FPassing clouds.10 mph49%29.77 "HgN/A
5:20 PM66 °FScattered clouds.8 mph52%29.77 "HgN/A
4:50 PM66 °FScattered clouds.8 mph56%29.77 "HgN/A
4:20 PM64 °FScattered clouds.9 mph56%29.77 "HgN/A
3:50 PM66 °FScattered clouds.13 mph52%29.74 "HgN/A
3:20 PM64 °FScattered clouds.15 mph56%29.74 "HgN/A
Weather by CustomWeather, © 2015

See weather overviewHow to use our weather pages